C/2024 G6 ( ATLAS )

Japanese version
Home page
Updated on October 18, 2024

---------------------------------------------------------------------

* Profile

Discovery Date April 10, 2024
Magnitude 19.1 mag
Discoverer Asteroid Terrestrial-Impact Last Alert System (ATLAS) search program

* Pictures

* Orbital Elements

Epoch 2024 Oct. 17.0 TT = JDT 2460600.5
T 2026 Feb. 20.99516 TT                                 Bell
q   6.4289164            (2000.0)            P               Q
z  -0.0003652      Peri.   23.46456     -0.49016070     -0.30957173
 +/-0.0000289      Node   250.95190     -0.87162384     +0.17002039
e   1.0023476      Incl.  120.45760     -0.00379035     +0.93555247
>From 76 observations 2024 Apr. 10-Sept. 1, mean residual 0".6.

* Magnitudes Graph

        m1 = 5.5 + 5 log d + 10.0 log r

---------------------------------------------------------------------

The orbital elements are published on M.P.E.C. 2024-R266.
The magnitudes graphs are made with Comet for Windows.

---------------------------------------------------------------------

Copyright(C) Seiichi Yoshida (comet@aerith.net). All rights reserved.